Weather Roundup
Issued by NWS

Home | Current Version | Previous Version | Text Only | Print | Product List | Glossary On
Versions: 1 2 3 4 5 6 7 8 9 10 11 12 13 14 15 16 17 18 19 20 21 22 23 24 25 26 27 28 29 30 31 32 33 34 35 36 37 38 39 40 41 42 43 44 45 46 47 48 49 50
000
NZUS93 KARX 220510
HRRWXR

CURRENT HOURLY OBSERVATIONS ACROSS
MUCH OF THE UPPER MISSISSIPPI VALLEY
NATIONAL WEATHER SERVICE LA CROSSE WI
1200 AM CDT SAT JUL 22 2017


...SOUTHEAST MINNESOTA...


CITY           SKY/WX    TMP DP  RH WIND       PRES   REMARKS
ROCHESTER      CLOUDY    68  68 100 NE13      29.83F
ROCHESTER/MAYO CLOUDY    69  69 100 NE6       29.84S
WINONA         CLOUDY    70  68  94 NE5       29.82F
AUSTIN         MOCLDY    70  66  88 NE7       29.80F
ALBERT LEA     CLEAR     72  70  94 NE6       29.80F
DODGE CENTER   MOCLDY    68  66  94 NE8       29.83F
PRESTON        CLOUDY    68  66  93 E6        29.84S
OWATONNA       PTCLDY    70  68  94 NE7       29.82F
FARIBAULT      PTCLDY    70  68  94 NE5       29.82F
$$

...ELSEWHERE IN MINNESOTA...


CITY           SKY/WX    TMP DP  RH WIND       PRES   REMARKS
MINNEAPOLIS    MOCLDY    76  66  71 NE15      29.86F
INTNL FALLS    PTCLDY    56  55  97 CALM      29.83R FOG
DULUTH         CLOUDY    61  61 100 CALM      29.82S
RED WING       CLOUDY    72  66  83 NE9       29.84F
REDWOOD FALLS  CLEAR     72  68  87 E5        29.83S
MANKATO        CLOUDY    73  68  84 NE9       29.81F
WORTHINGTON    CLOUDY    72  70  94 NE9       29.83R
FAIRMONT       CLOUDY    72  71  97 E5        29.80F
$$

...SOUTHWEST WISCONSIN...


CITY           SKY/WX    TMP DP  RH WIND       PRES   REMARKS
LA CROSSE      CLOUDY    73  70  90 CALM      29.82S
PRAIRIE DU CHI RAIN      71  70  96 CALM      29.80S
BOSCOBEL       CLOUDY    73  71  93 CALM      29.82R
LONE ROCK      CLOUDY    71  68  90 NE9       29.82F
PLATTEVILLE    CLOUDY    72  72 100 CALM      29.83S
FORT MC COY    CLOUDY    66  66 100 NE3       29.85S
CAMP DOUGLAS   CLOUDY    68  68 100 E3        29.85R
MAUSTON-NEW LI CLOUDY    70  69  97 CALM      29.84S FOG
VIROQUA        CLOUDY    69  69 100 E8        29.84S
WIS DELLS      CLOUDY    67  66  94 E8        29.85F
$$

...ELSEWHERE IN WISCONSIN...


CITY           SKY/WX    TMP DP  RH WIND       PRES   REMARKS
MILWAUKEE      CLOUDY    69  66  90 NE8       29.85F
MADISON        CLOUDY    68  67  96 NE7       29.85R
GREEN BAY      CLOUDY    71  65  81 S7        29.86F
EAU CLAIRE     MOCLDY    71  65  81 NW5       29.85F
BLACK RVR FLS  FAIR      66  66 100 N3        29.84S FOG
MEDFORD        CLOUDY    64  63  97 CALM      29.89F
WAUSAU         MOCLDY    65  64  97 CALM      29.86F
WIS RAPIDS     CLOUDY    68  67  96 NE3       29.87F
MARSHFIELD     CLEAR     67  64  90 NE3       29.86F
RICE LAKE      CLOUDY    65  63  93 CALM      29.89F
$$

...NORTHEAST IOWA...


CITY           SKY/WX    TMP DP  RH WIND       PRES   REMARKS
WATERLOO       PTCLDY    73  70  90 E8        29.75R
DUBUQUE        TSTM      68  68 100 N16G31    29.89R VSB 3/4
DECORAH        CLOUDY    70  70 100 E5        29.81S
MASON CITY     LGT RAIN  70  69  97 E7        29.80F
CHARLES CITY   HVY RAIN  72  72 100 E15G24    29.77F VSB 1/4
OELWEIN        CLOUDY    72  70  94 N15G22    29.79R
$$

...ELSEWHERE IN IOWA...


CITY           SKY/WX    TMP DP  RH WIND       PRES   REMARKS
DES MOINES     CLEAR     88  75  65 S14       29.71F HX  97
IOWA CITY      MOCLDY    78  74  87 CALM      29.75F
FORT DODGE     CLOUDY    73  70  88 NE6       29.76F
MARSHALLTOWN   CLEAR     73  73 100 NE5       29.71F
CEDAR RAPIDS   CLOUDY    73  73 100 S6        29.72F
$$

...NORTHERN ILLINOIS...


CITY           SKY/WX    TMP DP  RH WIND       PRES   REMARKS
CHICAGO-OHARE  TSTM      75  71  87 SE6       29.85F
CHICAGO-MIDWAY TSTM      75  72  90 S12       29.86F FOG
MOLINE         CLEAR     76  72  87 E9        29.78F
ROCKFORD       TSTM      73  69  87 VRB3      29.85S
PEORIA         CLOUDY    84  73  69 S9        29.81F HX  90
$$

NOTE: "FAIR" INDICATES FEW OR NO CLOUDS BELOW 12,000 FEET WITH NO
SIGNIFICANT WEATHER AND/OR OBSTRUCTIONS TO VISIBILITY. WIND
SPEEDS ARE IN MILES-PER-HOUR.




USA.gov is the U.S. government's official web portal to all federal, state and local government web resources and services.